Location: Poughquag
(41.6090°N, 73.6820°W)
Time: 11:27:27
(UTC-04:00)

Tiros 1 - Pass Details

Date: 07 June 2020
Orbit: 630 x 664 km, 48.4° (Epoch: 06 July)

Event Time Altitude Azimuth Distance (km) Brightness Sun altitude
Rises 09:50:42 0° 217° (SW) 2,981 10.4 47.6°
Reaches altitude 10° 09:53:09 10° 210° (SSW) 2,069 9.7 48.0°
Maximum altitude 09:57:37 41° 141° (SE) 959 9.4 48.9°
Drops below altitude 10° 10:02:05 10° 72° (ENE) 2,064 10.5 49.7°
Sets 10:04:31 0° 65° (ENE) 2,972 11.0 50.1°
